Location: Bremen
(53.0793°N, 8.8017°E)
Time: 20:53:56
(UTC+01:00)

S-56A Canister/Altair - Pass Details

Date: 08 December 2021
Orbit: 634 x 2499 km, 38.9° (Epoch: 26 January)

Event Time Altitude Azimuth Distance (km) Brightness Sun altitude
Rises 04:11:27 0° 263° (W) 4,187 - -36.6°
Reaches altitude 10° 04:17:20 10° 230° (SW) 2,721 - -35.8°
Maximum altitude 04:18:42 11° 217° (SW) 2,558 - -35.6°
Drops below altitude 10° 04:20:01 10° 204° (SSW) 2,512 - -35.4°
Sets 04:24:29 0° 166° (SSE) 3,143 - -34.7°
